• In Italy
  • List of Countries
  • For 7 days
  • Water Temperature
  • Satellite Maps
  • Weather Map
  • Weather Widgets
  • user-avatar
    Login

    Hourly Weather Esbjerg

    Today, 23 October, Tuesday

    Time Temperature Precipitation Wind Pressure Humidity
    00:00 +9°C° 0.4 mm 14 mps 764 mmHg 77%
    01:00 +9°C° 0.4 mm 14 mps 763 mmHg 79%
    02:00 +9°C° 1.3 mm 15 mps 762 mmHg 81%
    03:00 +9°C° 1.3 mm 15 mps 761 mmHg 82%
    04:00 +9°C° 1.3 mm 16 mps 760 mmHg 84%
    05:00 +10°C° 0.6 mm 16 mps 759 mmHg 83%
    06:00 +10°C° 0.6 mm 16 mps 758 mmHg 82%
    07:00 +10°C° 0.6 mm 16 mps 757 mmHg 82%
    08:00 +10°C° 0.2 mm 15 mps 757 mmHg 82%
    09:00 +10°C° 0.2 mm 15 mps 757 mmHg 82%
    10:00 +10°C° 0.2 mm 15 mps 757 mmHg 82%
    11:00 +10°C° 0.1 mm 14 mps 757 mmHg 81%
    12:00 +12°C° 0.1 mm 14 mps 757 mmHg 80%
    13:00 +12°C° 0.1 mm 14 mps 756 mmHg 80%
    14:00 +10°C° 0.2 mm 13 mps 756 mmHg 81%
    15:00 +10°C° 0.2 mm 13 mps 756 mmHg 82%
    16:00 +10°C° 0.2 mm 13 mps 756 mmHg 83%
    17:00 +10°C° 0.2 mm 13 mps 756 mmHg 83%
    18:00 +10°C° 0.2 mm 13 mps 756 mmHg 82%
    19:00 +10°C° 0.2 mm 13 mps 755 mmHg 82%
    20:00 +9°C° 0.1 mm 13 mps 756 mmHg 79%
    21:00 +9°C° 0.1 mm 13 mps 756 mmHg 76%
    22:00 +8°C° 0.1 mm 13 mps 756 mmHg 72%
    23:00 +8°C° 0 mm 12 mps 757 mmHg 72%

    Tomorrow, 24 October, Wednesday

    Time Temperature Precipitation Wind Pressure Humidity
    00:00 +7°C° 0 mm 12 mps 757 mmHg 71%
    01:00 +7°C° 0 mm 11 mps 758 mmHg 70%
    02:00 +6°C° 0 mm 11 mps 758 mmHg 70%
    03:00 +6°C° 0 mm 11 mps 759 mmHg 69%
    04:00 +4°C° 0 mm 11 mps 759 mmHg 69%
    05:00 +4°C° 0 mm 11 mps 760 mmHg 68%
    06:00 +5°C° 0 mm 10 mps 760 mmHg 67%
    07:00 +5°C° 0 mm 10 mps 761 mmHg 67%
    08:00 +5°C° 0 mm 10 mps 761 mmHg 65%
    09:00 +6°C° 0 mm 10 mps 762 mmHg 64%
    10:00 +7°C° 0 mm 9 mps 762 mmHg 62%
    11:00 +7°C° 0 mm 9 mps 763 mmHg 62%
    12:00 +8°C° 0 mm 9 mps 763 mmHg 62%
    13:00 +8°C° 0 mm 9 mps 763 mmHg 61%
    14:00 +9°C° 0 mm 8 mps 763 mmHg 64%
    15:00 +9°C° 0 mm 8 mps 763 mmHg 66%
    16:00 +8°C° 0 mm 7 mps 762 mmHg 69%
    17:00 +8°C° 0 mm 7 mps 762 mmHg 73%
    18:00 +8°C° 0 mm 7 mps 762 mmHg 78%
    19:00 +8°C° 0 mm 7 mps 762 mmHg 82%
    20:00 +9°C° 0.1 mm 8 mps 761 mmHg 83%
    21:00 +10°C° 0.1 mm 9 mps 761 mmHg 85%
    22:00 +11°C° 0.1 mm 11 mps 760 mmHg 86%
    23:00 +11°C° 0.1 mm 11 mps 760 mmHg 86%

    Day after tomorrow, 25 October, Thursday

    Time Temperature Precipitation Wind Pressure Humidity
    00:00 +11°C° 0.1 mm 11 mps 760 mmHg 86%
    01:00 +11°C° 0.1 mm 11 mps 759 mmHg 86%
    02:00 +11°C° 0.1 mm 11 mps 759 mmHg 84%
    03:00 +10°C° 0.1 mm 12 mps 758 mmHg 82%
    04:00 +10°C° 0.1 mm 12 mps 758 mmHg 80%
    05:00 +9°C° 0.1 mm 12 mps 758 mmHg 78%
    06:00 +9°C° 0.1 mm 12 mps 758 mmHg 75%
    07:00 +9°C° 0.1 mm 12 mps 758 mmHg 73%
    08:00 +8°C° 0 mm 11 mps 758 mmHg 72%
    09:00 +8°C° 0 mm 11 mps 758 mmHg 72%
    10:00 +8°C° 0 mm 10 mps 758 mmHg 71%
    11:00 +8°C° 0 mm 10 mps 758 mmHg 70%
    12:00 +8°C° 0 mm 10 mps 758 mmHg 70%
    13:00 +8°C° 0 mm 9 mps 758 mmHg 69%
    14:00 +8°C° 0 mm 9 mps 758 mmHg 70%
    15:00 +8°C° 0 mm 9 mps 758 mmHg 70%
    16:00 +8°C° 0 mm 9 mps 758 mmHg 70%
    17:00 +9°C° 0 mm 8 mps 758 mmHg 71%
    18:00 +7°C° 0 mm 8 mps 757 mmHg 73%
    19:00 +7°C° 0 mm 8 mps 757 mmHg 74%
    20:00 +8°C° 0 mm 7 mps 757 mmHg 74%
    21:00 +8°C° 0 mm 7 mps 757 mmHg 74%
    22:00 +8°C° 0 mm 7 mps 757 mmHg 73%
    23:00 +8°C° 0 mm 6 mps 756 mmHg 75%

    26 October, Friday

    Time Temperature Precipitation Wind Pressure Humidity
    00:00 +8°C° 0 mm 6 mps 756 mmHg 76%
    01:00 +8°C° 0 mm 5 mps 755 mmHg 77%
    02:00 +8°C° 0.1 mm 5 mps 755 mmHg 81%
    03:00 +8°C° 0.1 mm 5 mps 754 mmHg 85%
    04:00 +8°C° 0.1 mm 4 mps 753 mmHg 89%
    05:00 +9°C° 0.4 mm 5 mps 752 mmHg 90%
    06:00 +9°C° 0.4 mm 6 mps 751 mmHg 90%
    07:00 +9°C° 0.4 mm 7 mps 750 mmHg 91%
    08:00 +10°C° 0.2 mm 7 mps 750 mmHg 87%
    09:00 +10°C° 0.2 mm 7 mps 749 mmHg 82%
    10:00 +11°C° 0.2 mm 8 mps 748 mmHg 78%
    11:00 +11°C° 0.3 mm 8 mps 747 mmHg 77%
    12:00 +11°C° 0.3 mm 9 mps 747 mmHg 76%
    13:00 +11°C° 0.3 mm 9 mps 746 mmHg 74%
    14:00 +10°C° 0.2 mm 9 mps 745 mmHg 74%
    15:00 +9°C° 0.2 mm 10 mps 745 mmHg 73%
    16:00 +8°C° 0.2 mm 10 mps 744 mmHg 73%
    17:00 +7°C° 0.2 mm 10 mps 744 mmHg 74%
    18:00 +7°C° 0.2 mm 11 mps 743 mmHg 76%
    19:00 +6°C° 0.2 mm 11 mps 743 mmHg 78%
    20:00 +5°C° 0.1 mm 12 mps 743 mmHg 76%
    21:00 +5°C° 0.1 mm 12 mps 743 mmHg 74%
    22:00 +5°C° 0.1 mm 12 mps 742 mmHg 71%
    23:00 +5°C° 0.3 mm 12 mps 742 mmHg 74%

    27 October, Saturday

    Time Temperature Precipitation Wind Pressure Humidity
    00:00 +5°C° 0.3 mm 13 mps 742 mmHg 76%
    01:00 +5°C° 0.3 mm 14 mps 742 mmHg 78%
    02:00 +5°C° 0.7 mm 13 mps 742 mmHg 79%
    03:00 +4°C° 0.7 mm 11 mps 742 mmHg 79%
    04:00 +5°C° 0.7 mm 10 mps 742 mmHg 80%
    05:00 +3°C° 0.3 mm 10 mps 743 mmHg 79%
    06:00 +3°C° 0.3 mm 9 mps 743 mmHg 79%
    07:00 +3°C° 0.3 mm 9 mps 744 mmHg 79%
    08:00 +3°C° 0.2 mm 9 mps 745 mmHg 77%
    09:00 +3°C° 0.2 mm 9 mps 745 mmHg 76%
    10:00 +5°C° 0.2 mm 8 mps 746 mmHg 74%
    11:00 +5°C° 0.2 mm 8 mps 746 mmHg 73%
    12:00 +5°C° 0.2 mm 8 mps 747 mmHg 72%
    13:00 +5°C° 0.2 mm 8 mps 747 mmHg 71%
    14:00 +5°C° 0.3 mm 8 mps 748 mmHg 72%
    15:00 +5°C° 0.3 mm 7 mps 748 mmHg 74%
    16:00 +5°C° 0.3 mm 7 mps 748 mmHg 75%
    17:00 +4°C° 0.3 mm 7 mps 749 mmHg 76%
    18:00 +4°C° 0.3 mm 6 mps 749 mmHg 77%
    19:00 +3°C° 0.3 mm 6 mps 750 mmHg 78%
    20:00 +3°C° 0.1 mm 7 mps 750 mmHg 78%
    21:00 +3°C° 0.1 mm 7 mps 751 mmHg 78%
    22:00 +2°C° 0.1 mm 7 mps 751 mmHg 78%
    23:00 +2°C° 0 mm 7 mps 751 mmHg 78%

    28 October, Sunday

    Time Temperature Precipitation Wind Pressure Humidity
    00:00 +1°C° 0 mm 8 mps 752 mmHg 78%
    01:00 +1°C° 0 mm 8 mps 752 mmHg 78%
    02:00 0°C° 0 mm 8 mps 753 mmHg 78%
    03:00 0°C° 0 mm 8 mps 753 mmHg 77%
    04:00 0°C° 0 mm 8 mps 753 mmHg 77%
    05:00 0°C° 0 mm 9 mps 754 mmHg 77%
    06:00 0°C° 0 mm 9 mps 754 mmHg 78%
    07:00 0°C° 0 mm 9 mps 755 mmHg 78%
    08:00 0°C° 0 mm 9 mps 755 mmHg 76%
    09:00 +1°C° 0 mm 9 mps 756 mmHg 73%
    10:00 +1°C° 0 mm 10 mps 756 mmHg 71%
    11:00 +1°C° 0 mm 9 mps 756 mmHg 68%
    12:00 +2°C° 0 mm 9 mps 757 mmHg 65%
    13:00 +2°C° 0 mm 9 mps 757 mmHg 62%
    14:00 +2°C° 0 mm 8 mps 758 mmHg 63%
    15:00 +1°C° 0 mm 8 mps 758 mmHg 63%
    16:00 +1°C° 0 mm 8 mps 758 mmHg 64%
    17:00 0°C° 0 mm 8 mps 759 mmHg 67%
    18:00 -1°C° 0 mm 7 mps 759 mmHg 69%
    19:00 -1°C° 0 mm 7 mps 759 mmHg 72%
    20:00 -2°C° 0 mm 7 mps 760 mmHg 74%
    21:00 -2°C° 0 mm 6 mps 760 mmHg 75%
    22:00 -2°C° 0 mm 6 mps 760 mmHg 76%
    23:00 -2°C° 0 mm 6 mps 760 mmHg 76%
    Show more